| time (UTC) | temp F | wind direction | speed MPH | gust MPH | rain 1hr in | rain 24hr in | rain mn in | humidity % | barometer mb |
| 20260507091105 | 56 | 202 | 2.0 | 6.0 | 0.00 | 0.00 | 0.00 | 70 | 1013.3 |
| 20260507090105 | 56 | 273 | 1.0 | 3.0 | 0.00 | 0.00 | 0.00 | 72 | 1013.4 |
| 20260507084605 | 55 | 19 | 0.0 | 3.0 | 0.00 | 0.00 | 0.00 | 76 | 1013.3 |
| 20260507083605 | 54 | 19 | 0.0 | 1.0 | 0.00 | 0.00 | 0.00 | 79 | 1013.3 |
| 20260507083105 | 54 | 19 | 0.0 | 3.0 | 0.00 | 0.00 | 0.00 | 80 | 1013.2 |
| 20260507082105 | 53 | 22 | 1.0 | 5.0 | 0.00 | 0.00 | 0.00 | 85 | 1013.1 |
| 20260507081605 | 52 | 22 | 0.0 | 3.0 | 0.00 | 0.00 | 0.00 | 86 | 1013.2 |
| 20260507080605 | 51 | 28 | 1.0 | 5.0 | 0.00 | 0.00 | 0.00 | 88 | 1013.2 |
| 20260507080105 | 50 | 28 | 0.0 | 3.0 | 0.00 | 0.00 | 0.00 | 89 | 1013.2 |
| 20260507075605 | 50 | 28 | 2.0 | 3.0 | 0.00 | 0.00 | 0.00 | 89 | 1013.2 |
| 20260507075104 | 49 | 32 | 0.0 | 3.0 | 0.00 | 0.00 | 0.00 | 90 | 1013.2 |
| 20260507074105 | 48 | 32 | 1.0 | 3.0 | 0.00 | 0.00 | 0.00 | 90 | 1013.2 |
| 20260507073605 | 47 | 32 | 1.0 | 3.0 | 0.00 | 0.00 | 0.00 | 90 | 1013.2 |
| 20260507073105 | 47 | 32 | 1.0 | 3.0 | 0.00 | 0.00 | 0.00 | 91 | 1013.2 |
| 20260507072605 | 47 | 32 | 1.0 | 3.0 | 0.00 | 0.00 | 0.00 | 91 | 1013.2 |
| 20260507072104 | 47 | 32 | 0.0 | 3.0 | 0.00 | 0.00 | 0.00 | 91 | 1013.2 |
| 20260507071104 | 46 | 32 | 0.0 | 3.0 | 0.00 | 0.00 | 0.00 | 92 | 1013.2 |
| 20260507070605 | 45 | 32 | 1.0 | 3.0 | 0.00 | 0.00 | 0.00 | 92 | 1013.2 |
| 20260507070105 | 45 | 32 | 0.0 | 1.0 | 0.00 | 0.00 | 0.00 | 92 | 1013.1 |
| 20260507065104 | 44 | 32 | 0.0 | 0.0 | 0.00 | 0.00 | 0.00 | 92 | 1013.2 |
| 20260507061104 | 39 | 32 | 0.0 | 0.0 | 0.00 | 0.00 | 0.00 | 92 | 1013.1 |
| 20260507060105 | 38 | 32 | 0.0 | 0.0 | 0.00 | 0.00 | 0.00 | 91 | 1012.9 |
| 20260507055105 | 38 | 32 | 0.0 | 0.0 | 0.00 | 0.00 | 0.00 | 91 | 1012.9 |
| 20260507054604 | 38 | 32 | 0.0 | 0.0 | 0.00 | 0.00 | 0.00 | 91 | 1013.0 |
| 20260507053105 | 37 | 32 | 0.0 | 0.0 | 0.00 | 0.00 | 0.00 | 91 | 1012.9 |
| 20260507052604 | 37 | 32 | 0.0 | 0.0 | 0.00 | 0.00 | 0.00 | 91 | 1012.8 |
| 20260507052105 | 37 | 32 | 0.0 | 0.0 | 0.00 | 0.00 | 0.00 | 91 | 1012.8 |
| 20260507051604 | 37 | 32 | 0.0 | 0.0 | 0.00 | 0.00 | 0.00 | 91 | 1012.8 |
| 20260507050105 | 37 | 32 | 0.0 | 0.0 | 0.00 | 0.00 | 0.00 | 91 | 1012.7 |
| 20260507045605 | 37 | 32 | 0.0 | 0.0 | 0.00 | 0.00 | 0.00 | 91 | 1012.7 |
| 20260507044605 | 37 | 32 | 0.0 | 0.0 | 0.00 | 0.00 | 0.00 | 91 | 1012.7 |
| 20260507042105 | 37 | 32 | 0.0 | 0.0 | 0.00 | 0.00 | 0.00 | 90 | 1012.7 |
| 20260507040107 | 37 | 32 | 0.0 | 0.0 | 0.00 | 0.00 | 0.00 | 90 | 1012.7 |
| 20260507035605 | 37 | 32 | 0.0 | 0.0 | 0.00 | 0.00 | 0.00 | 90 | 1012.7 |
| 20260507035105 | 37 | 32 | 0.0 | 0.0 | 0.00 | 0.00 | 0.00 | 90 | 1012.7 |
| 20260507034605 | 37 | 32 | 0.0 | 0.0 | 0.00 | 0.00 | 0.00 | 90 | 1012.7 |
| 20260507032605 | 36 | 32 | 0.0 | 0.0 | 0.00 | 0.00 | 0.00 | 90 | 1012.7 |
| 20260507031604 | 36 | 32 | 0.0 | 0.0 | 0.00 | 0.00 | 0.00 | 90 | 1012.7 |
| 20260507031105 | 36 | 32 | 0.0 | 0.0 | 0.00 | 0.00 | 0.00 | 90 | 1012.7 |
| 20260507025105 | 36 | 32 | 0.0 | 0.0 | 0.00 | 0.00 | 0.00 | 89 | 1012.7 |
| 20260507022605 | 36 | 32 | 0.0 | 0.0 | 0.00 | 0.00 | 0.00 | 89 | 1012.6 |
| 20260507022105 | 36 | 32 | 0.0 | 0.0 | 0.00 | 0.00 | 0.00 | 89 | 1012.6 |
| 20260507014604 | 36 | 32 | 0.0 | 0.0 | 0.00 | 0.00 | 0.00 | 89 | 1012.4 |
| 20260507013104 | 36 | 32 | 0.0 | 0.0 | 0.00 | 0.00 | 0.00 | 89 | 1012.4 |
| 20260507011605 | 37 | 32 | 0.0 | 0.0 | 0.00 | 0.00 | 0.00 | 88 | 1012.5 |
| 20260507010105 | 37 | 32 | 0.0 | 0.0 | 0.00 | 0.00 | 0.00 | 88 | 1012.5 |
| 20260507005105 | 37 | 32 | 0.0 | 0.0 | 0.00 | 0.00 | 0.00 | 88 | 1012.5 |
| 20260507004605 | 37 | 32 | 0.0 | 0.0 | 0.00 | 0.00 | 0.00 | 88 | 1012.5 |
| 20260507002104 | 38 | 32 | 0.0 | 0.0 | 0.00 | 0.00 | 0.00 | 88 | 1012.6 |
| 20260507001105 | 38 | 32 | 0.0 | 0.0 | 0.00 | 0.00 | 0.00 | 87 | 1012.6 |
| 20260507000105 | 38 | 32 | 0.0 | 0.0 | 0.00 | 0.00 | 0.00 | 87 | 1012.6 |
| 20260506233105 | 39 | 32 | 0.0 | 0.0 | 0.00 | 0.00 | 0.00 | 87 | 1012.3 |
| 20260506232605 | 39 | 32 | 0.0 | 0.0 | 0.00 | 0.00 | 0.00 | 87 | 1012.3 |
| 20260506232104 | 39 | 32 | 0.0 | 0.0 | 0.00 | 0.00 | 0.00 | 86 | 1012.2 |
| 20260506230605 | 39 | 32 | 0.0 | 0.0 | 0.00 | 0.00 | 0.00 | 86 | 1012.2 |
| 20260506225104 | 40 | 32 | 0.0 | 0.0 | 0.00 | 0.00 | 0.00 | 86 | 1012.2 |
| 20260506224605 | 40 | 32 | 0.0 | 0.0 | 0.00 | 0.00 | 0.00 | 86 | 1012.2 |
| 20260506224105 | 40 | 32 | 0.0 | 0.0 | 0.00 | 0.00 | 0.00 | 85 | 1012.2 |
| 20260506223105 | 41 | 32 | 0.0 | 0.0 | 0.00 | 0.00 | 0.00 | 85 | 1012.2 |
| 20260506222605 | 41 | 32 | 0.0 | 0.0 | 0.00 | 0.00 | 0.00 | 85 | 1012.2 |
| 20260506222105 | 41 | 32 | 0.0 | 0.0 | 0.00 | 0.00 | 0.00 | 84 | 1012.2 |
| 20260506221604 | 41 | 32 | 0.0 | 2.0 | 0.00 | 0.00 | 0.00 | 84 | 1012.2 |
| 20260506215605 | 42 | 32 | 0.0 | 0.0 | 0.00 | 0.00 | 0.00 | 83 | 1012.1 |
| 20260506213105 | 44 | 32 | 0.0 | 0.0 | 0.00 | 0.00 | 0.00 | 82 | 1011.9 |
| 20260506211105 | 46 | 32 | 0.0 | 0.0 | 0.00 | 0.00 | 0.00 | 80 | 1012.0 |
| 20260506210605 | 46 | 32 | 0.0 | 0.0 | 0.00 | 0.00 | 0.00 | 80 | 1011.9 |
| 20260506210105 | 46 | 32 | 0.0 | 0.0 | 0.00 | 0.00 | 0.00 | 79 | 1011.9 |
| 20260506205604 | 47 | 32 | 0.0 | 0.0 | 0.00 | 0.00 | 0.00 | 79 | 1011.8 |
| 20260506205106 | 47 | 32 | 0.0 | 0.0 | 0.00 | 0.00 | 0.00 | 78 | 1011.8 |
| 20260506204605 | 48 | 32 | 0.0 | 1.0 | 0.00 | 0.00 | 0.00 | 77 | 1011.7 |
| 20260506203105 | 49 | 32 | 0.0 | 0.0 | 0.00 | 0.00 | 0.00 | 75 | 1011.6 |
| 20260506202605 | 50 | 32 | 0.0 | 0.0 | 0.00 | 0.00 | 0.00 | 74 | 1011.6 |
| 20260506202104 | 51 | 32 | 0.0 | 1.0 | 0.00 | 0.00 | 0.00 | 73 | 1011.5 |
| 20260506195604 | 52 | 32 | 1.0 | 3.0 | 0.00 | 0.00 | 0.00 | 70 | 1011.4 |
| 20260506195105 | 52 | 32 | 2.0 | 3.0 | 0.00 | 0.00 | 0.00 | 70 | 1011.3 |
| 20260506193605 | 53 | 32 | 0.0 | 1.0 | 0.00 | 0.00 | 0.00 | 68 | 1011.1 |
| 20260506192606 | 54 | 32 | 0.0 | 1.0 | 0.00 | 0.00 | 0.00 | 66 | 1011.0 |
| 20260506191605 | 55 | 32 | 0.0 | 3.0 | 0.00 | 0.00 | 0.00 | 64 | 1010.9 |
| 20260506191104 | 55 | 30 | 3.0 | 7.0 | 0.00 | 0.00 | 0.00 | 63 | 1010.9 |
| 20260506185605 | 56 | 36 | 3.0 | 5.0 | 0.00 | 0.00 | 0.00 | 61 | 1010.7 |
| 20260506183105 | 56 | 15 | 1.0 | 9.0 | 0.00 | 0.00 | 0.00 | 58 | 1010.6 |
| 20260506182105 | 57 | 13 | 3.0 | 6.0 | 0.00 | 0.00 | 0.00 | 57 | 1010.5 |
| 20260506181605 | 57 | 11 | 2.0 | 5.0 | 0.00 | 0.00 | 0.00 | 57 | 1010.5 |
| 20260506180105 | 57 | 13 | 1.0 | 7.0 | 0.00 | 0.00 | 0.00 | 57 | 1010.3 |
| 20260506175105 | 58 | 13 | 6.0 | 9.0 | 0.00 | 0.00 | 0.00 | 55 | 1010.2 |
| 20260506173605 | 58 | 19 | 5.0 | 10.0 | 0.00 | 0.00 | 0.00 | 57 | 1010.1 |
| 20260506173105 | 58 | 24 | 5.0 | 12.0 | 0.00 | 0.00 | 0.00 | 57 | 1010.1 |
| 20260506172605 | 58 | 11 | 5.0 | 12.0 | 0.00 | 0.00 | 0.00 | 55 | 1010.1 |
| 20260506172106 | 58 | 8 | 5.0 | 7.0 | 0.00 | 0.00 | 0.00 | 55 | 1010.1 |
| 20260506171605 | 58 | 11 | 5.0 | 8.0 | 0.00 | 0.00 | 0.00 | 53 | 1010.0 |
| 20260506170105 | 58 | 352 | 5.0 | 12.0 | 0.00 | 0.00 | 0.00 | 54 | 1010.0 |
| 20260506164606 | 58 | 12 | 3.0 | 8.0 | 0.00 | 0.00 | 0.00 | 51 | 1010.0 |
| 20260506164105 | 59 | 51 | 5.0 | 9.0 | 0.00 | 0.00 | 0.00 | 51 | 1010.0 |
| 20260506160605 | 59 | 14 | 5.0 | 12.0 | 0.00 | 0.00 | 0.00 | 51 | 1010.0 |
| 20260506160105 | 59 | 21 | 7.0 | 10.0 | 0.00 | 0.00 | 0.00 | 52 | 1010.0 |
| 20260506155104 | 59 | 52 | 1.0 | 7.0 | 0.00 | 0.00 | 0.00 | 51 | 1010.0 |
| 20260506154604 | 59 | 18 | 4.0 | 9.0 | 0.00 | 0.00 | 0.00 | 51 | 1010.0 |
| 20260506154104 | 59 | 17 | 6.0 | 12.0 | 0.00 | 0.00 | 0.00 | 50 | 1010.1 |
| 20260506153105 | 59 | 340 | 4.0 | 9.0 | 0.00 | 0.00 | 0.00 | 52 | 1010.0 |
| 20260506152106 | 59 | 350 | 4.0 | 9.0 | 0.00 | 0.00 | 0.00 | 50 | 1010.0 |
| 20260506151605 | 59 | 349 | 3.0 | 8.0 | 0.00 | 0.00 | 0.00 | 50 | 1010.0 |
| 20260506151105 | 59 | 351 | 5.0 | 9.0 | 0.00 | 0.00 | 0.00 | 50 | 1010.1 |
| 20260506150605 | 59 | 13 | 5.0 | 12.0 | 0.00 | 0.00 | 0.00 | 50 | 1010.1 |
| 20260506145105 | 59 | 323 | 6.0 | 12.0 | 0.00 | 0.00 | 0.00 | 49 | 1010.2 |
| 20260506144605 | 60 | 9 | 6.0 | 10.0 | 0.00 | 0.00 | 0.00 | 50 | 1010.2 |
| 20260506143105 | 60 | 3 | 7.0 | 12.0 | 0.00 | 0.00 | 0.00 | 50 | 1010.2 |
| 20260506142605 | 61 | 20 | 5.0 | 15.0 | 0.00 | 0.00 | 0.00 | 50 | 1010.2 |
| 20260506142105 | 61 | 320 | 2.0 | 9.0 | 0.00 | 0.00 | 0.00 | 51 | 1010.1 |
| 20260506141104 | 59 | 300 | 5.0 | 9.0 | 0.00 | 0.00 | 0.00 | 52 | 1010.2 |
| 20260506135104 | 59 | 13 | 6.0 | 10.0 | 0.00 | 0.00 | 0.00 | 51 | 1010.4 |
| 20260506133105 | 60 | 38 | 5.0 | 12.0 | 0.00 | 0.00 | 0.00 | 51 | 1010.3 |
| 20260506132105 | 60 | 352 | 8.0 | 14.0 | 0.00 | 0.00 | 0.00 | 52 | 1010.2 |
| 20260506123604 | 60 | 344 | 6.0 | 12.0 | 0.00 | 0.00 | 0.00 | 53 | 1010.5 |
| 20260506123106 | 60 | 356 | 7.0 | 13.0 | 0.00 | 0.00 | 0.00 | 52 | 1010.5 |
| 20260506122105 | 59 | 7 | 7.0 | 12.0 | 0.00 | 0.00 | 0.00 | 52 | 1010.5 |
| 20260506121605 | 58 | 35 | 6.0 | 14.0 | 0.00 | 0.00 | 0.00 | 53 | 1010.5 |
| 20260506120105 | 58 | 14 | 5.0 | 12.0 | 0.00 | 0.00 | 0.00 | 54 | 1010.6 |
| 20260506115104 | 59 | 25 | 3.0 | 12.0 | 0.00 | 0.00 | 0.00 | 53 | 1010.6 |
| 20260506114605 | 58 | 337 | 7.0 | 12.0 | 0.00 | 0.00 | 0.00 | 53 | 1010.7 |
| 20260506114104 | 59 | 13 | 6.0 | 15.0 | 0.00 | 0.00 | 0.00 | 51 | 1010.7 |
| 20260506112606 | 57 | 0 | 5.0 | 13.0 | 0.00 | 0.00 | 0.00 | 54 | 1010.7 |
| 20260506112105 | 57 | 14 | 7.0 | 10.0 | 0.00 | 0.00 | 0.00 | 56 | 1010.7 |
| 20260506110605 | 57 | 30 | 6.0 | 12.0 | 0.00 | 0.00 | 0.00 | 54 | 1010.7 |
| 20260506104605 | 56 | 355 | 7.0 | 14.0 | 0.00 | 0.00 | 0.00 | 57 | 1010.8 |
| 20260506103104 | 56 | 13 | 5.0 | 9.0 | 0.00 | 0.00 | 0.00 | 59 | 1010.7 |
| 20260506101605 | 56 | 19 | 6.0 | 13.0 | 0.00 | 0.00 | 0.00 | 58 | 1010.7 |
| 20260506101105 | 56 | 15 | 6.0 | 12.0 | 0.00 | 0.00 | 0.00 | 58 | 1010.7 |
| 20260506100606 | 56 | 39 | 7.0 | 13.0 | 0.00 | 0.00 | 0.00 | 62 | 1010.7 |
| 20260506100106 | 55 | 8 | 5.0 | 10.0 | 0.00 | 0.01 | 0.00 | 63 | 1010.7 |
| 20260506095105 | 54 | 0 | 5.0 | 12.0 | 0.00 | 0.01 | 0.00 | 63 | 1010.8 |
| 20260506094605 | 55 | 17 | 6.0 | 13.0 | 0.00 | 0.01 | 0.00 | 64 | 1010.8 |
| 20260506094108 | 54 | 352 | 8.0 | 14.0 | 0.00 | 0.01 | 0.00 | 63 | 1010.8 |